FW9069 Weather Reports


time (UTC)temp
F
wind
direction
speed
knots
gust
knots
rain 1hr
in
rain 24hr
in
rain mn
in
humidity
%
barometer
mb
20260503200320 81 327 5.2 10.4 0.00 0.00 0.00 52 1011.1
20260503194823 79 327 3.5 8.7 0.00 0.00 0.00 54 1011.2
20260503193348 79 321 1.7 8.7 0.00 0.00 0.00 55 1011.3
20260503191834 78 344 2.6 6.1 0.00 0.00 0.00 56 1011.5
20260503190357 77 321 1.7 8.7 0.00 0.00 0.00 59 1011.6
20260503184825 75 327 1.7 7.0 0.00 0.00 0.00 63 1011.9
20260503183333 74 344 4.3 7.8 0.00 0.00 0.00 62 1012.0
20260503181837 73 4 3.5 7.0 0.00 0.00 0.00 64 1012.2
20260503180326 72 1 6.1 7.8 0.00 0.00 0.00 65 1012.2
20260503174832 71 326 6.1 9.6 0.00 0.00 0.00 65 1012.3
20260503173339 70 319 4.3 8.7 0.00 0.00 0.00 68 1012.2
20260503171822 68 352 2.6 7.0 0.00 0.00 0.00 72 1012.1
20260503170326 67 336 4.3 6.1 0.00 0.00 0.00 73 1012.4
20260503150350 58 350 2.6 3.5 0.00 0.00 0.00 91 1012.6
20260503130329 54 323 2.6 4.3 0.00 0.00 0.00 93 1011.9
20260503110336 57 341 0.9 2.6 0.00 0.00 0.00 88 1012.1
20260503090343 57 319 1.7 5.2 0.00 0.00 0.00 90 1012.4
20260503080321 57 315 0.0 0.9 0.00 0.00 0.00 88 1012.5
20260503071826 58 316 0.9 2.6 0.00 0.00 0.00 87 1012.9
20260503070335 58 317 1.7 2.6 0.00 0.00 0.00 87 1012.9
20260503060334 58 317 1.7 6.1 0.00 0.00 0.00 88 1012.8
20260503054826 58 317 0.0 0.9 0.00 0.00 0.00 87 1012.8
20260503053339 58 317 1.7 2.6 0.00 0.00 0.00 86 1013.0
20260503051849 59 317 0.0 0.9 0.00 0.00 0.00 85 1013.0
20260503050338 59 317 0.9 1.7 0.00 0.00 0.00 84 1013.0
20260503044824 60 317 0.9 2.6 0.00 0.00 0.00 83 1013.0
20260503043329 60 317 0.0 1.7 0.00 0.00 0.00 82 1012.8
20260503041841 61 317 2.6 5.2 0.00 0.00 0.00 81 1012.8
20260503040331 62 322 0.9 2.6 0.00 0.00 0.00 80 1012.8
20260503034820 62 301 0.9 3.5 0.00 0.00 0.00 79 1012.5
20260503033328 62 277 2.6 4.3 0.00 0.00 0.00 78 1012.1
20260503031834 63 3 2.6 5.2 0.00 0.00 0.00 76 1012.2
20260503030338 63 306 1.7 2.6 0.00 0.00 0.00 77 1012.1
20260503024829 63 305 0.9 4.3 0.00 0.00 0.00 77 1011.9
20260503021826 64 358 0.0 0.9 0.00 0.00 0.00 76 1012.3
20260503020338 64 360 1.7 4.3 0.00 0.00 0.00 75 1012.6
20260503014826 65 8 3.5 11.3 0.00 0.00 0.00 72 1012.9
20260503013338 66 51 1.7 7.0 0.00 0.00 0.00 70 1013.1
20260503011828 66 15 2.6 6.1 0.00 0.00 0.00 70 1012.7
20260503010333 66 21 2.6 4.3 0.00 0.00 0.00 69 1012.6
20260503004840 66 21 2.6 7.0 0.00 0.00 0.00 70 1012.5
20260503003329 66 7 2.6 4.3 0.00 0.00 0.00 69 1012.6
20260503001833 67 17 1.7 4.3 0.00 0.00 0.00 68 1012.4
20260503000323 67 5 0.9 6.1 0.00 0.00 0.00 68 1012.3
20260502234830 67 356 3.5 7.0 0.00 0.00 0.00 71 1012.2
20260502233336 67 331 2.6 6.1 0.00 0.00 0.00 70 1012.4
20260502231819 66 19 2.6 6.1 0.00 0.00 0.00 71 1012.7
20260502230326 66 327 3.5 4.3 0.00 0.00 0.00 71 1012.8
20260502224854 64 329 2.6 4.3 0.00 0.00 0.00 72 1013.2
20260502223350 64 339 1.7 4.3 0.00 0.00 0.00 72 1013.7
20260502221857 65 339 4.3 7.0 0.00 0.00 0.00 71 1013.9
20260502220324 65 52 5.2 7.0 0.00 0.00 0.00 69 1013.9
20260502214826 66 335 4.3 7.8 0.00 0.00 0.00 68 1014.0
20260502213333 66 9 2.6 9.6 0.00 0.00 0.00 69 1014.3
20260502211823 66 323 1.7 7.8 0.00 0.00 0.00 68 1014.3
20260502210330 65 304 1.7 6.1 0.00 0.00 0.00 73 1014.4
20260502204835 65 359 2.6 10.4 0.00 0.00 0.00 70 1014.7
20260502203319 64 325 2.6 10.4 0.00 0.00 0.00 72 1014.8
20260502201846 63 4 2.6 9.6 0.00 0.00 0.00 74 1015.1